Location: Newark
(49.8969°N, 3.3422°E)
Time: 06:05:45
(UTC+00:00)

Tiros 1 - Pass Details

Date: 25 January 2021
Orbit: 630 x 664 km, 48.4° (Epoch: 06 March)

Event Time Altitude Azimuth Distance (km) Brightness Sun altitude
Rises 20:01:02 0° 267° (W) 2,924 11.5 -33.7°
Reaches altitude 10° 20:03:22 10° 266° (W) 2,012 10.4 -34.1°
Enters shadow 20:05:02 22° 263° (W) 1,379 9.4 -34.4°
